Location: Greenwich
(51.4790°N, 0.0090°E)
Time: 17:24:04
(UTC+01:00)

X-37B - Pass Details

Date: 27 September 2021
Orbit: 385 x 389 km, 45.0° (Epoch: 13 October)

Event Time Altitude Azimuth Distance (km) Brightness Sun altitude
Exits shadow 05:54:07 13° 232° (SW) 1,246 2.6 -10.2°
Maximum altitude 05:56:19 25° 180° (S) 819 2.1 -9.8°
Drops below altitude 10° 05:59:01 10° 122° (ESE) 1,415 4.2 -9.4°
Sets 06:01:17 0° 109° (ESE) 2,270 5.7 -9.1°
